1512752400.4,25999,6.63,72410.8,-7.49,-9.15,-9.23,0,*51
1512752401.63,26000,6.63,72406.8,-7.47,-9.19,-9.23,0,*59
1512752402.88,26001,6.63,72404.5,-7.47,-9.11,-9.23,0,*50
1512752404.14,26002,6.63,72406.5,-7.47,-9.11,-9.23,0,*53
1512752405.37,26003,6.63,72408.0,-7.47,-9.19,-9.27,0,*5E
1512752406.57,26004,6.63,72410.8,-7.49,-9.31,-9.27,0,*5D
1512752407.77,26005,6.63,72410.3,-7.49,-9.31,-9.23,0,*58
1512752409.03,26006,6.63,72408.3,-7.47,-9.37,-9.23,0,*53
1512752410.29,26007,6.63,72404.3,-7.47,-9.37,-9.27,0,*56
1512752411.51,26008,6.63,72402.0,-7.47,-9.27,-9.19,0,*55
1512752412.77,26009,6.63,72404.0,-7.47,-9.27,-9.11,0,*5C
1512752414.03,26010,6.63,72408.0,-7.47,-9.37,-9.19,0,*5D
1512752415.25,26011,6.63,72412.8,-7.47,-9.23,-9.19,0,*59
1512752416.48,26012,6.63,72412.0,-7.49,-9.23,-9.15,0,*58
1512752417.74,26013,6.63,72414.5,-7.47,-9.11,-9.05,0,*57
1512752419.0,26014,6.63,72416.5,-7.47,-9.11,-9.05,0,*50
1512752420.26,26015,6.63,72414.5,-7.47,-9.11,-9.05,0,*51
1512752421.49,26016,6.63,72414.3,-7.49,-9.11,-9.01,0,*58
1512752422.75,26017,6.63,72414.5,-7.47,-9.11,-8.97,0,*59
1512752423.96,26018,6.63,72412.0,-7.49,-9.01,-8.97,0,*59
1512752425.19,26019,6.63,72412.0,-7.47,-9.05,-8.97,0,*52
1512752426.4,26020,6.63,72410.3,-7.49,-9.01,-8.97,0,*52
1512752427.64,26021,6.63,72410.5,-7.47,-8.97,-8.85,0,*50
1512752428.87,26022,6.63,72412.3,-7.47,-8.93,-8.85,0,*57
1512752430.08,26023,6.56,72406.0,-7.49,-8.97,-8.85,0,*5C
1512752431.29,26024,6.63,72408.5,-7.49,-8.89,-8.89,0,*58
1512752432.52,26025,6.63,72410.3,-7.47,-8.97,-8.85,0,*54
1512752433.73,26026,6.63,72408.0,-7.49,-8.97,-8.89,0,*55
1512752434.96,26027,6.63,72404.0,-7.47,-8.93,-8.93,0,*55
1512752436.19,26028,6.63,72400.0,-7.47,-8.97,-8.97,0,*5A
1512752437.39,26029,6.63,72404.0,-7.49,-8.97,-8.97,0,*55
1512752438.63,26030,6.63,72400.8,-7.47,-8.85,-8.93,0,*54
1512752439.86,26031,6.56,72402.3,-7.47,-8.93,-8.93,0,*52
1512752441.1,26032,6.63,72404.0,-7.47,-8.85,-8.93,0,*56
1512752442.33,26033,6.63,72404.8,-7.47,-8.93,-8.93,0,*50
1512752443.57,26034,6.63,72408.8,-7.47,-8.93,-9.05,0,*59
1512752444.8,26035,6.63,72408.8,-7.47,-8.93,-9.05,0,*58
1512752446.03,26036,6.63,72404.5,-7.47,-9.05,-8.97,0,*5F
1512752447.26,26037,6.63,72410.3,-7.49,-8.97,-9.11,0,*55
1512752448.5,26038,6.63,72406.8,-7.47,-9.05,-9.05,0,*5B
1512752449.72,26039,6.56,72406.5,-7.47,-8.97,-9.05,0,*50
1512752450.98,26040,6.63,72408.5,-7.47,-8.97,-9.11,0,*5B
1512752452.24,26041,6.56,72402.0,-7.47,-9.05,-9.11,0,*50
1512752453.47,26042,6.63,72406.3,-7.47,-9.05,-9.19,0,*5B
1512752454.7,26043,6.63,72402.3,-7.47,-9.05,-9.23,0,*53
1512752455.93,26044,6.63,72404.0,-7.49,-9.05,-9.41,0,*5E
1512752457.16,26045,6.63,72400.5,-7.49,-9.31,-9.53,0,*5B
1512752458.42,26046,6.63,72392.8,-7.47,-9.27,-9.61,0,*50
1512752459.68,26047,6.56,72396.8,-7.47,-9.27,-9.53,0,*50
1512752460.93,26048,6.63,72392.8,-7.47,-9.49,-9.67,0,*50
1512752462.16,26049,6.63,72400.3,-7.49,-9.45,-9.67,0,*53
1512752463.42,26050,6.63,72406.8,-7.47,-9.41,-9.67,0,*51
1512752464.67,26051,6.63,72406.5,-7.47,-9.53,-9.75,0,*50
1512752465.9,26052,6.63,72400.0,-7.47,-9.67,-9.75,0,*54
1512752467.1,26053,6.56,72398.5,-7.49,-9.67,-9.71,0,*5F
1512752468.3,26054,6.63,72400.5,-7.49,-9.67,-9.71,0,*58
1512752469.53,26055,6.63,72402.0,-7.49,-9.61,-9.79,0,*57
1512752470.76,26056,6.63,72398.5,-7.49,-9.71,-9.83,0,*50
1512752471.97,26057,6.63,72402.0,-7.49,-9.71,-9.79,0,*54
1512752473.2,26058,6.63,72398.5,-7.47,-9.67,-9.79,0,*52
1512752474.4,26059,6.63,72402.5,-7.49,-9.71,-9.93,0,*5E
1512752475.63,26060,6.63,72406.3,-7.49,-9.79,-9.83,0,*5D
1512752476.86,26061,6.63,72404.5,-7.49,-9.79,-9.83,0,*5C
1512752478.07,26062,6.63,72402.0,-7.49,-9.79,-9.79,0,*5A
1512752479.27,26063,6.63,72400.5,-7.49,-9.79,-9.79,0,*5B
1512752480.49,26064,6.63,72400.3,-7.49,-9.83,-9.79,0,*59
1512752481.72,26065,6.63,72402.0,-7.49,-9.83,-9.79,0,*58
1512752482.95,26066,6.63,72404.8,-7.47,-9.75,-9.79,0,*5C
1512752484.15,26067,6.63,72406.3,-7.49,-9.75,-9.89,0,*5C
1512752485.35,26068,6.63,72400.5,-7.49,-9.93,-9.97,0,*54
1512752486.55,26069,6.56,72406.5,-7.49,-9.97,-10.05,0,*62
1512752487.75,26070,6.63,72402.0,-7.49,-9.97,-10.09,0,*66
1512752488.96,26071,6.56,72396.3,-7.49,-10.09,-10.23,0,*50
1512752490.17,26072,6.63,72398.5,-7.49,-10.09,-10.23,0,*53
1512752491.4,26073,6.56,72392.5,-7.47,-10.05,-10.09,0,*58
1512752492.64,26074,6.56,72394.8,-7.47,-10.05,-10.15,0,*52
1512752493.87,26075,6.56,72394.0,-7.47,-10.09,-10.09,0,*52
1512752495.09,26076,6.63,72400.5,-7.49,-10.15,-10.15,0,*5F
1512752496.31,26077,6.63,72406.3,-7.49,-10.09,-10.15,0,*53
1512752497.52,26078,6.63,72400.0,-7.49,-10.09,-10.15,0,*5C
1512752498.72,26079,6.56,72392.8,-7.49,-10.09,-10.09,0,*50
1512752499.93,26080,6.63,72396.3,-7.49,-10.05,-10.05,0,*56
1512752501.16,26081,6.56,72404.8,-7.51,-10.09,-10.05,0,*52
1512752502.39,26082,6.63,72406.3,-7.47,-10.01,-9.75,0,*61
1512752503.64,26083,6.63,72408.5,-7.49,-9.83,-9.57,0,*5C
1512752504.87,26084,6.56,72408.3,-7.49,-9.71,-9.57,0,*56
1512752506.11,26085,6.63,72414.0,-7.49,-9.57,-9.53,0,*57
1512752507.34,26086,6.63,72404.3,-7.49,-9.67,-9.53,0,*57
1512752508.59,26087,6.63,72404.8,-7.49,-9.57,-9.53,0,*55
1512752509.84,26088,6.63,72406.0,-7.49,-9.53,-9.41,0,*5D
1512752511.06,26089,6.63,72404.5,-7.49,-9.53,-9.27,0,*5C
1512752512.28,26090,6.63,72408.0,-7.49,-9.45,-9.31,0,*54
1512752513.51,26091,6.56,72396.8,-7.49,-9.41,-9.27,0,*56
1512752514.75,26092,6.63,72398.5,-7.49,-9.41,-9.27,0,*55
1512752515.95,26093,6.63,72398.0,-7.49,-9.31,-9.23,0,*57
1512752517.15,26094,6.63,72396.3,-7.49,-9.31,-9.23,0,*50
1512752518.35,26095,6.56,72394.0,-7.49,-9.27,-9.23,0,*56
1512752519.58,26096,6.56,72396.8,-7.47,-9.23,-9.19,0,*56
1512752520.8,26097,6.63,72396.8,-7.47,-9.19,-9.19,0,*5E
1512752522.03,26098,6.63,72402.3,-7.47,-9.23,-9.19,0,*58
1512752523.26,26099,6.63,72400.5,-7.49,-9.27,-9.15,0,*5F
1512752524.52,26100,6.56,72402.8,-7.49,-9.15,-9.15,0,*5F
1512752525.75,26101,6.63,72404.8,-7.49,-9.23,-9.15,0,*5B
1512752527.01,26102,6.63,72402.3,-7.49,-9.15,-9.11,0,*59
1512752528.24,26103,6.63,72402.3,-7.49,-9.23,-9.11,0,*5D
1512752529.48,26104,6.63,72404.0,-7.49,-9.15,-9.01,0,*5E
1512752530.74,26105,6.63,72406.3,-7.49,-9.11,-9.11,0,*5A
1512752532.0,26106,6.63,72400.5,-7.49,-9.11,-9.11,0,*59
1512752533.21,26107,6.63,72400.5,-7.49,-9.01,-9.01,0,*58
1512752534.42,26108,6.63,72400.5,-7.49,-9.01,-9.01,0,*57
1512752535.63,26109,6.63,72396.5,-7.49,-9.01,-8.97,0,*58
1512752536.84,26110,6.63,72396.0,-7.49,-9.01,-8.89,0,*5F
1512752538.05,26111,6.63,72402.3,-7.49,-8.97,-8.89,0,*50
1512752539.25,26112,6.63,72402.8,-7.49,-8.97,-8.89,0,*53
1512752540.47,26113,6.63,72402.3,-7.49,-8.89,-8.85,0,*51
1512752541.67,26114,6.63,72404.0,-7.49,-8.97,-8.89,0,*55
1512752542.91,26115,6.63,72404.3,-7.47,-8.89,-8.85,0,*59
1512752544.12,26116,6.63,72406.5,-7.49,-8.97,-8.85,0,*5B
1512752545.32,26117,6.63,72402.8,-7.49,-8.97,-8.89,0,*56
1512752546.53,26118,6.63,72404.3,-7.49,-8.93,-8.85,0,*51
1512752547.76,26119,6.63,72404.0,-7.49,-8.89,-8.81,0,*5F
1512752548.97,26120,6.63,72400.8,-7.49,-8.89,-8.89,0,*5D
1512752550.18,26121,6.63,72400.8,-7.49,-8.97,-9.01,0,*52
1512752551.41,26122,6.63,72396.5,-7.47,-8.97,-8.97,0,*51
1512752552.64,26123,6.63,72398.5,-7.47,-8.97,-8.93,0,*54
1512752553.84,26124,6.63,72400.8,-7.49,-8.97,-8.97,0,*59
1512752555.07,26125,6.63,72400.3,-7.47,-8.93,-8.93,0,*56
1512752556.28,26126,6.63,72400.5,-7.49,-9.01,-8.97,0,*55
1512752557.48,26127,6.63,72400.0,-7.49,-8.97,-8.97,0,*5A
1512752558.69,26128,6.63,72400.8,-7.49,-8.97,-8.89,0,*5A
1512752559.93,26129,6.63,72402.8,-7.49,-9.11,-9.01,0,*55
1512752561.16,26130,6.63,72404.0,-7.47,-9.05,-8.97,0,*58
1512752562.39,26131,6.63,72408.5,-7.47,-9.01,-8.93,0,*59
1512752563.6,26132,6.63,72404.3,-7.49,-9.01,-8.97,0,*50
1512752564.83,26133,6.63,72400.8,-7.47,-8.97,-8.85,0,*52
1512752566.04,26134,6.63,72404.0,-7.49,-9.01,-8.97,0,*56
1512752567.25,26135,6.63,72406.3,-7.49,-9.01,-8.97,0,*57
1512752568.49,26136,6.56,72404.5,-7.47,-9.05,-8.93,0,*5A
1512752569.72,26137,6.63,72408.5,-7.47,-8.97,-8.85,0,*56
1512752570.95,26138,6.63,72406.8,-7.49,-9.11,-8.97,0,*5B
1512752572.16,26139,6.63,72410.0,-7.49,-9.01,-8.97,0,*5B
1512752573.39,26140,6.63,72410.3,-7.47,-8.97,-8.93,0,*51
1512752574.6,26141,6.63,72406.3,-7.49,-9.01,-8.89,0,*5B
1512752575.83,26142,6.63,72404.5,-7.49,-9.11,-8.97,0,*56
1512752577.04,26143,6.63,72402.8,-7.49,-8.97,-8.93,0,*5C
1512752578.27,26144,6.63,72402.5,-7.49,-9.11,-9.01,0,*5E
1512752579.48,26145,6.63,72400.5,-7.49,-8.89,-8.97,0,*51
1512752580.68,26146,6.56,72396.0,-7.49,-8.97,-8.97,0,*5D
1512752581.89,26147,6.63,72400.3,-7.49,-8.89,-8.97,0,*53
1512752583.1,26148,6.63,72402.0,-7.49,-8.89,-8.97,0,*5C
1512752584.33,26149,6.63,72404.5,-7.47,-8.93,-8.97,0,*58
1512752585.56,26150,6.63,72406.0,-7.49,-8.97,-9.11,0,*55
1512752586.78,26151,6.63,72404.8,-7.49,-9.01,-9.01,0,*5B
1512752588.04,26152,6.63,72408.3,-7.49,-9.11,-9.11,0,*58
1512752589.29,26153,6.63,72402.0,-7.49,-9.11,-9.11,0,*59
1512752590.55,26154,6.63,72402.8,-7.49,-9.11,-9.15,0,*5A
1512752591.79,26155,6.63,72398.0,-7.49,-9.01,-9.11,0,*5E
1512752593.05,26156,6.63,72394.5,-7.49,-9.11,-9.11,0,*5C
1512752594.31,26157,6.56,72388.0,-7.49,-9.11,-9.11,0,*5D
1512752595.54,26158,6.63,72392.3,-7.49,-9.01,-9.11,0,*53
1512752596.78,26159,6.63,72394.3,-7.49,-9.01,-9.11,0,*52
1512752598.04,26160,6.63,72392.0,-7.49,-9.11,-9.11,0,*59
1512752599.27,26161,6.56,72394.3,-7.49,-9.01,-9.11,0,*59
1512752600.51,26162,6.63,72396.0,-7.49,-9.11,-9.01,0,*5A
1512752601.75,26163,6.63,72400.3,-7.49,-9.01,-9.11,0,*5B
1512752602.98,26164,6.56,72400.3,-7.49,-9.11,-9.01,0,*5C
1512752604.24,26165,6.56,72406.8,-7.49,-9.11,-9.11,0,*5C
1512752605.5,26166,6.63,72410.5,-7.49,-9.11,-9.11,0,*5F
1512752606.76,26167,6.63,72412.3,-7.49,-9.11,-9.11,0,*5E
1512752608.0,26168,6.63,72414.3,-7.49,-9.11,-9.01,0,*50
1512752609.21,26169,6.56,72410.0,-7.49,-8.89,-9.01,0,*51
1512752610.47,26170,6.63,72412.3,-7.51,-8.97,-9.11,0,*5E
1512752611.7,26171,6.63,72412.8,-7.49,-8.97,-9.11,0,*56
1512752612.95,26172,6.63,72412.3,-7.49,-9.11,-9.15,0,*5E
1512752614.21,26173,6.56,72412.3,-7.51,-9.01,-9.15,0,*57
1512752615.48,26174,6.63,72412.3,-7.51,-9.15,-9.27,0,*54
1512752616.71,26175,6.56,72408.5,-7.51,-9.23,-9.27,0,*50
1512752617.94,26176,6.63,72414.5,-7.51,-9.27,-9.27,0,*57
1512752619.2,26177,6.56,72410.3,-7.51,-9.15,-9.23,0,*53
1512752620.49,26178,6.56,72408.0,-7.51,-9.15,-9.15,0,*59
1512752621.77,26179,6.63,72412.3,-7.51,-9.15,-9.15,0,*58
1512752623.06,26180,6.56,72408.8,-7.51,-9.15,-9.15,0,*5E
1512752624.26,26181,6.63,72412.5,-7.53,-9.19,-9.19,0,*5D
1512752625.54,26182,6.56,72404.0,-7.51,-9.15,-9.15,0,*5C
1512752626.81,26183,6.56,72404.5,-7.51,-9.15,-9.01,0,*58
1512752628.07,26184,6.56,72402.5,-7.51,-9.11,-8.97,0,*55
1512752629.31,26185,6.56,72400.5,-7.51,-9.01,-8.89,0,*5A
1512752630.54,26186,6.63,72400.3,-7.51,-8.97,-8.85,0,*5B
1512752631.75,26187,6.63,72400.3,-7.49,-8.97,-8.85,0,*53
1512752632.95,26188,6.63,72396.3,-7.49,-8.97,-8.85,0,*5C
1512752634.16,26189,6.56,72396.8,-7.49,-8.89,-8.85,0,*52
1512752635.38,26190,6.56,72396.3,-7.49,-8.85,-8.85,0,*56
1512752636.58,26191,6.63,72398.0,-7.49,-8.89,-8.75,0,*54
1512752637.81,26192,6.56,72398.0,-7.51,-8.85,-8.75,0,*52
1512752639.04,26193,6.63,72400.0,-7.51,-8.85,-8.75,0,*53
1512752640.28,26194,6.56,72400.0,-7.51,-8.85,-8.75,0,*54
1512752641.5,26195,6.56,72400.0,-7.51,-8.75,-8.75,0,*5A
1512752642.71,26196,6.56,72398.8,-7.49,-8.85,-8.75,0,*5F
1512752643.9,26197,6.63,72402.5,-7.49,-8.75,-8.75,0,*51
1512752645.11,26198,6.63,72406.0,-7.49,-8.85,-8.75,0,*51
1512752646.33,26199,6.56,72402.5,-7.47,-8.71,-8.67,0,*56
1512752647.53,26200,6.63,72404.3,-7.49,-8.75,-8.75,0,*5C
1512752648.74,26201,6.63,72400.8,-7.49,-8.85,-8.75,0,*52
1512752649.96,26202,6.63,72400.8,-7.51,-8.75,-8.75,0,*57
1512752651.17,26203,6.63,72404.3,-7.49,-8.71,-8.71,0,*5F
1512752652.37,26204,6.56,72400.5,-7.49,-8.71,-8.71,0,*58
1512752653.57,26205,6.56,72400.8,-7.49,-8.63,-8.63,0,*59
1512752654.79,26206,6.63,72406.8,-7.47,-8.67,-8.67,0,*54
1512752655.99,26207,6.63,72410.0,-7.49,-8.63,-8.71,0,*58
1512752657.21,26208,6.63,72404.3,-7.47,-8.67,-8.59,0,*57
1512752658.42,26209,6.63,72406.8,-7.49,-8.71,-8.71,0,*55
1512752659.64,26210,6.63,72404.3,-7.47,-8.67,-8.67,0,*53
1512752660.86,26211,6.56,72404.0,-7.47,-8.67,-8.59,0,*5F
1512752662.05,26212,6.63,72406.5,-7.49,-8.59,-8.67,0,*52
1512752663.27,26213,6.56,72404.3,-7.47,-8.67,-8.67,0,*50
1512752664.48,26214,6.63,72408.0,-7.49,-8.71,-8.71,0,*59
1512752665.68,26215,6.56,72404.8,-7.49,-8.71,-8.71,0,*58
1512752666.88,26216,6.56,72404.5,-7.49,-8.71,-8.75,0,*5F
1512752668.1,26217,6.56,72406.8,-7.47,-8.67,-8.67,0,*54
1512752669.33,26218,6.56,72408.0,-7.47,-8.71,-8.67,0,*5C
1512752670.55,26219,6.63,72410.8,-7.47,-8.67,-8.67,0,*5A
1512752671.77,26220,6.56,72408.0,-7.47,-8.59,-8.59,0,*50
1512752672.97,26221,6.63,72410.3,-7.49,-8.63,-8.63,0,*5F
1512752674.17,26222,6.63,72410.5,-7.49,-8.63,-8.63,0,*5C
1512752675.39,26223,6.56,72410.0,-7.47,-8.59,-8.59,0,*53
1512752676.62,26224,6.56,72410.3,-7.47,-8.71,-8.67,0,*53
1512752677.87,26225,6.63,72408.5,-7.47,-8.71,-8.81,0,*5A
1512752679.1,26226,6.56,72410.3,-7.47,-8.71,-8.71,0,*56
1512752680.3,26227,6.56,72408.3,-7.49,-8.63,-8.71,0,*5A
1512752681.53,26228,6.63,72408.5,-7.47,-8.67,-8.59,0,*55
1512752682.75,26229,6.56,72410.3,-7.47,-8.67,-8.71,0,*5E
1512752684.0,26230,6.63,72410.8,-7.47,-8.71,-8.81,0,*5E
1512752685.2,26231,6.63,72410.8,-7.49,-8.75,-8.75,0,*5E
1512752686.4,26232,6.56,72410.5,-7.49,-8.63,-8.71,0,*5E
1512752687.62,26233,6.63,72412.8,-7.47,-8.67,-8.59,0,*5F
1512752688.84,26234,6.63,72412.0,-7.47,-8.67,-8.59,0,*58
1512752690.06,26235,6.56,72410.8,-7.47,-8.67,-8.67,0,*54
1512752691.27,26236,6.56,72412.0,-7.49,-8.71,-8.63,0,*5A
1512752692.49,26237,6.56,72412.5,-7.47,-8.67,-8.67,0,*56
1512752693.71,26238,6.63,72418.3,-7.47,-8.67,-8.59,0,*54
1512752694.93,26239,6.56,72414.3,-7.47,-8.67,-8.67,0,*58
1512752696.15,26240,6.63,72414.5,-7.47,-8.67,-8.67,0,*56
1512752697.35,26241,6.63,72410.5,-7.49,-8.71,-8.63,0,*5A
1512752698.57,26242,6.56,72408.5,-7.47,-8.67,-8.67,0,*54
1512752699.79,26243,6.63,72414.0,-7.47,-8.59,-8.67,0,*58
1512752700.98,26244,6.63,72414.3,-7.45,-8.59,-8.67,0,*5D
1512752702.17,26245,6.56,72414.8,-7.45,-8.67,-8.67,0,*51
1512752703.36,26246,6.56,72412.5,-7.45,-8.71,-8.67,0,*55
1512752704.56,26247,6.56,72412.3,-7.45,-8.71,-8.67,0,*54
1512752705.78,26248,6.56,72410.8,-7.47,-8.67,-8.67,0,*5E
1512752707.0,26249,6.63,72414.3,-7.47,-8.67,-8.71,0,*58
1512752708.27,26250,6.63,72414.3,-7.47,-8.81,-8.81,0,*57
1512752709.54,26251,6.56,72414.8,-7.47,-8.81,-8.81,0,*56
1512752710.8,26252,6.63,72414.0,-7.47,-8.71,-8.81,0,*5A
1512752712.05,26253,6.63,72414.3,-7.47,-8.71,-8.81,0,*5B
1512752713.32,26254,6.63,72412.0,-7.47,-8.81,-8.81,0,*53
1512752714.55,26255,6.63,72418.0,-7.47,-8.71,-8.71,0,*52
1512752715.78,26256,6.63,72416.5,-7.47,-8.71,-8.67,0,*56
1512752717.02,26257,6.63,72416.0,-7.47,-8.67,-8.81,0,*58
1512752718.28,26258,6.56,72418.3,-7.47,-8.81,-8.85,0,*5B
1512752719.5,26259,6.63,72418.5,-7.45,-8.81,-8.85,0,*58
1512752720.71,26260,6.56,72422.3,-7.45,-8.85,-9.05,0,*5F
1512752721.94,26261,6.63,72422.5,-7.47,-8.93,-9.05,0,*5B
1512752723.15,26262,6.56,72416.8,-7.45,-8.93,-9.05,0,*5A
1512752724.35,26263,6.63,72414.0,-7.45,-8.97,-9.19,0,*52
1512752725.55,26264,6.63,72410.5,-7.45,-9.05,-9.27,0,*52
1512752726.83,26265,6.56,72402.8,-7.47,-9.11,-9.41,0,*54
1512752728.09,26266,6.56,72400.0,-7.47,-9.23,-9.41,0,*56
1512752729.37,26267,6.63,72406.3,-7.47,-9.11,-9.41,0,*56
1512752730.6,26268,6.56,72406.3,-7.49,-9.23,-9.53,0,*55
1512752731.86,26269,6.56,72406.5,-7.47,-9.27,-9.53,0,*5E
1512752733.12,26270,6.56,72410.0,-7.47,-9.27,-9.53,0,*56
1512752734.38,26271,6.56,72408.5,-7.47,-9.27,-9.41,0,*54
1512752735.64,26272,6.56,72408.0,-7.49,-9.41,-9.53,0,*5A
1512752736.92,26273,6.56,72404.3,-7.47,-9.37,-9.49,0,*5F
1512752738.16,26274,6.56,72408.3,-7.49,-9.53,-9.57,0,*5B
1512752739.44,26275,6.63,72412.0,-7.47,-9.61,-9.53,0,*51
1512752740.64,26276,6.63,72408.5,-7.49,-9.67,-9.67,0,*5D
1512752741.87,26277,6.56,72404.0,-7.49,-9.71,-9.57,0,*58
1512752743.1,26278,6.63,72408.5,-7.49,-9.71,-9.57,0,*57
1512752744.33,26279,6.63,72410.3,-7.49,-9.71,-9.53,0,*52
1512752745.59,26280,6.56,72410.3,-7.47,-9.67,-9.37,0,*5F
1512752746.8,26281,6.56,72410.8,-7.49,-9.57,-9.31,0,*55
1512752748.02,26282,6.56,72406.5,-7.49,-9.53,-9.23,0,*51
1512752749.28,26283,6.56,72406.8,-7.49,-9.41,-9.15,0,*56
1512752750.5,26284,6.63,72402.8,-7.49,-9.27,-9.15,0,*51
1512752751.74,26285,6.56,72398.3,-7.49,-9.15,-9.01,0,*54
1512752753.0,26286,6.63,72402.0,-7.47,-9.11,-8.93,0,*57
1512752754.24,26287,6.56,72398.8,-7.49,-9.11,-8.89,0,*53
1512752755.45,26288,6.56,72398.5,-7.49,-9.01,-8.97,0,*52
1512752756.66,26289,6.56,72400.8,-7.49,-9.01,-9.01,0,*5D
1512752757.86,26290,6.56,72398.5,-7.49,-8.97,-8.97,0,*55
1512752759.08,26291,6.56,72400.5,-7.49,-8.89,-8.85,0,*58
1512752760.29,26292,6.56,72398.8,-7.49,-8.89,-8.85,0,*5B
1512752761.52,26293,6.56,72396.3,-7.47,-8.93,-8.85,0,*5F
1512752762.74,26294,6.56,72398.3,-7.49,-8.85,-8.89,0,*5D
1512752763.99,26295,6.63,72400.8,-7.47,-8.85,-8.81,0,*5A
1512752765.2,26296,6.56,72398.0,-7.49,-8.85,-8.85,0,*53
1512752766.42,26297,6.56,72398.0,-7.49,-8.89,-8.85,0,*5E
1512752767.69,26298,6.56,72398.5,-7.47,-8.81,-8.81,0,*53
1512752768.96,26299,6.56,72398.8,-7.47,-8.81,-8.81,0,*52
1512752770.15,26300,6.56,72396.8,-7.49,-8.75,-8.75,0,*5D
1512752771.4,26301,6.56,72398.0,-7.47,-8.81,-8.71,0,*5D
1512752772.65,26302,6.56,72396.3,-7.47,-8.81,-8.75,0,*5A
1512752773.85,26303,6.56,72396.0,-7.49,-8.75,-8.75,0,*5E
1512752775.05,26304,6.56,72398.5,-7.49,-8.85,-8.75,0,*56
1512752776.25,26305,6.56,72398.3,-7.49,-8.71,-8.67,0,*5F
1512752777.48,26306,6.63,72400.0,-7.47,-8.71,-8.59,0,*5F
1512752778.68,26307,6.56,72394.3,-7.49,-8.75,-8.71,0,*5E
1512752779.9,26308,6.56,72396.0,-7.47,-8.59,-8.59,0,*5B
1512752781.12,26309,6.56,72390.5,-7.47,-8.59,-8.67,0,*57
1512752782.34,26310,6.56,72392.0,-7.47,-8.67,-8.59,0,*5F
1512752783.56,26311,6.56,72392.3,-7.47,-8.67,-8.55,0,*52
1512752784.76,26312,6.63,72398.5,-7.49,-8.59,-8.63,0,*57
1512752785.98,26313,6.56,72394.3,-7.47,-8.59,-8.67,0,*5C
1512752787.18,26314,6.56,72396.3,-7.49,-8.71,-8.71,0,*58
1512752788.41,26315,6.63,72398.8,-7.47,-8.67,-8.59,0,*5A
1512752789.62,26316,6.56,72396.8,-7.47,-8.67,-8.67,0,*54
1512752790.85,26317,6.56,72398.3,-7.47,-8.71,-8.67,0,*52
1512752792.07,26318,6.56,72404.0,-7.47,-8.67,-8.59,0,*57
1512752793.28,26319,6.56,72406.0,-7.49,-8.71,-8.63,0,*56
1512752794.5,26320,6.56,72406.0,-7.47,-8.67,-8.67,0,*51
1512752795.72,26321,6.63,72404.0,-7.47,-8.67,-8.67,0,*50
1512752796.94,26322,6.56,72406.8,-7.47,-8.71,-8.67,0,*54
1512752798.14,26323,6.56,72404.3,-7.49,-8.71,-8.71,0,*5C
1512752799.4,26324,6.63,72400.5,-7.47,-8.71,-8.81,0,*5A
1512752800.61,26325,6.63,72404.3,-7.49,-8.85,-8.89,0,*56
1512752801.82,26326,6.56,72406.5,-7.49,-8.75,-8.85,0,*56
1512752803.05,26327,6.56,72404.3,-7.47,-8.71,-8.71,0,*56
1512752804.25,26328,6.56,72404.5,-7.49,-8.85,-8.75,0,*58
1512752805.5,26329,6.56,72406.5,-7.47,-8.81,-8.71,0,*57
1512752806.75,26330,6.56,72408.0,-7.47,-8.67,-8.81,0,*58
1512752807.94,26331,6.56,72414.5,-7.49,-8.67,-8.71,0,*58
1512752809.2,26332,6.56,72414.8,-7.47,-8.71,-8.81,0,*5D
1512752810.42,26333,6.56,72410.0,-7.47,-8.67,-8.71,0,*54
1512752811.64,26334,6.56,72408.8,-7.47,-8.59,-8.67,0,*59
1512752812.86,26335,6.56,72410.3,-7.47,-8.67,-8.71,0,*52
1512752814.11,26336,6.63,72416.5,-7.47,-8.67,-8.81,0,*5E
1512752815.33,26337,6.56,72416.0,-7.47,-8.67,-8.71,0,*50
1512752816.58,26338,6.56,72414.3,-7.47,-8.81,-8.97,0,*5F
1512752817.82,26339,6.56,72410.0,-7.47,-8.93,-8.93,0,*59
1512752819.05,26340,6.56,72404.5,-7.47,-8.93,-8.97,0,*53
1512752820.29,26341,6.56,72414.3,-7.47,-8.85,-8.93,0,*51
1512752821.52,26342,6.56,72416.8,-7.47,-8.93,-8.93,0,*55
1512752822.78,26343,6.56,72418.3,-7.47,-8.97,-9.11,0,*5B
1512752824.01,26344,6.56,72420.3,-7.47,-9.05,-9.19,0,*5E
1512752825.26,26345,6.56,72420.5,-7.47,-9.11,-9.27,0,*57
1512752826.53,26346,6.56,72414.3,-7.49,-9.15,-9.41,0,*5E
1512752827.76,26347,6.56,72410.0,-7.49,-9.27,-9.45,0,*5A
1512752828.99,26348,6.56,72410.3,-7.49,-9.31,-9.45,0,*52
1512752830.24,26349,6.56,72406.3,-7.49,-9.41,-9.57,0,*57
1512752831.5,26350,6.56,72408.3,-7.49,-9.45,-9.53,0,*5F
1512752832.75,26351,6.56,72408.8,-7.49,-9.53,-9.53,0,*59
1512752833.99,26352,6.56,72408.0,-7.49,-9.53,-9.57,0,*5E
1512752835.24,26353,6.56,72404.3,-7.49,-9.57,-9.57,0,*5B
1512752836.46,26354,6.56,72412.0,-7.49,-9.53,-9.67,0,*5B
1512752837.7,26355,6.56,72410.0,-7.49,-9.57,-9.57,0,*5D
1512752838.95,26356,6.56,72412.8,-7.49,-9.49,-9.49,0,*5E
1512752840.21,26357,6.56,72410.5,-7.49,-9.45,-9.53,0,*58
1512752841.45,26358,6.56,72406.8,-7.49,-9.57,-9.57,0,*50
1512752842.69,26359,6.63,72402.3,-7.49,-9.57,-9.57,0,*51
1512752843.97,26360,6.56,72414.5,-7.47,-9.53,-9.49,0,*5E
1512752845.21,26361,6.56,72412.0,-7.49,-9.57,-9.53,0,*5E
1512752846.46,26362,6.56,72418.0,-7.49,-9.53,-9.41,0,*5A
1512752847.72,26363,6.56,72416.0,-7.51,-9.45,-9.27,0,*55
1512752848.97,26364,6.56,72416.8,-7.51,-9.31,-9.15,0,*50
1512752850.22,26365,6.56,72422.0,-7.51,-9.31,-9.15,0,*51
1512752851.51,26366,6.56,72418.0,-7.51,-9.15,-9.15,0,*54
1512752852.8,26367,6.56,72414.3,-7.51,-9.15,-9.15,0,*55
1512752854.08,26368,6.56,72412.8,-7.51,-9.15,-9.11,0,*5E
1512752855.32,26369,6.56,72412.5,-7.51,-9.23,-9.01,0,*5B
1512752856.58,26370,6.56,72410.5,-7.51,-9.23,-9.11,0,*52
1512752857.83,26371,6.56,72404.5,-7.51,-9.23,-9.11,0,*53
1512752859.09,26372,6.56,72398.5,-7.51,-9.23,-9.11,0,*50
1512752860.36,26373,6.56,72396.0,-7.51,-9.15,-9.01,0,*55
1512752861.65,26374,6.56,72396.5,-7.51,-9.15,-9.11,0,*53
1512752862.93,26375,6.56,72396.5,-7.51,-9.15,-9.11,0,*52
1512752864.22,26376,6.56,72400.8,-7.51,-9.15,-9.11,0,*51
1512752865.49,26377,6.56,72402.5,-7.51,-9.15,-9.01,0,*51
1512752866.75,26378,6.63,72410.3,-7.51,-9.27,-9.11,0,*5E
1512752868.04,26379,6.56,72406.0,-7.51,-9.15,-9.11,0,*5E
1512752869.32,26380,6.56,72410.3,-7.51,-9.15,-9.11,0,*58
1512752870.61,26381,6.56,72416.8,-7.51,-9.11,-9.11,0,*5D
1512752871.89,26382,6.56,72414.3,-7.51,-9.11,-9.15,0,*5A
1512752873.13,26383,6.56,72414.0,-7.53,-9.15,-9.05,0,*5C
1512752874.41,26384,6.56,72408.3,-7.51,-9.11,-9.11,0,*58
1512752875.7,26385,6.56,72406.0,-7.51,-9.11,-9.11,0,*59
1512752876.99,26386,6.56,72404.8,-7.51,-9.15,-9.11,0,*5E
1512752878.28,26387,6.56,72404.3,-7.51,-9.11,-9.11,0,*5B
1512752879.53,26388,6.56,72402.3,-7.53,-9.15,-9.15,0,*56
1512752880.81,26389,6.56,72406.3,-7.51,-9.11,-9.15,0,*51
1512752882.05,26390,6.56,72400.8,-7.53,-9.15,-9.05,0,*5E
1512752883.25,26391,6.56,72406.3,-7.53,-9.05,-9.05,0,*5E
1512752884.49,26392,6.56,72406.8,-7.51,-9.01,-9.01,0,*5F
1512752885.76,26393,6.56,72408.0,-7.51,-9.11,-9.01,0,*5F
1512752887.02,26394,6.56,72402.5,-7.51,-9.11,-9.01,0,*58
1512752888.26,26395,6.56,72406.5,-7.51,-9.01,-8.97,0,*56
1512752889.49,26396,6.56,72406.8,-7.51,-9.01,-8.89,0,*5A
1512752890.73,26397,6.56,72408.3,-7.51,-9.01,-8.97,0,*54
1512752891.94,26398,6.56,72408.3,-7.53,-9.01,-8.89,0,*56
1512752893.15,26399,6.56,72408.3,-7.53,-9.01,-8.89,0,*57
1512752894.39,26400,6.56,72406.8,-7.51,-8.89,-8.89,0,*53
1512752895.62,26401,6.56,72400.5,-7.51,-8.97,-8.89,0,*5D
1512752896.86,26402,6.56,72400.8,-7.51,-8.89,-8.89,0,*51
1512752898.1,26403,6.56,72400.3,-7.51,-8.89,-8.85,0,*5C
1512752899.33,26404,6.56,72402.8,-7.51,-8.89,-8.97,0,*58
1512752900.57,26405,6.56,72406.5,-7.51,-9.01,-8.89,0,*57
1512752901.81,26406,6.56,72406.3,-7.51,-8.97,-8.89,0,*5A
1512752903.04,26407,6.56,72404.0,-7.51,-8.89,-8.89,0,*54
1512752904.28,26408,6.56,72406.3,-7.51,-8.75,-8.85,0,*54
1512752905.5,26409,6.56,72402.0,-7.53,-8.89,-8.81,0,*50
1512752906.74,26410,6.56,72400.8,-7.51,-8.89,-8.85,0,*5E
1512752908.01,26411,6.56,72398.0,-7.51,-8.81,-8.81,0,*53
1512752909.24,26412,6.56,72396.3,-7.51,-8.85,-8.75,0,*5F
1512752910.48,26413,6.56,72398.3,-7.51,-8.85,-8.85,0,*51
1512752911.72,26414,6.56,72396.5,-7.51,-8.89,-8.85,0,*5A
1512752912.95,26415,6.56,72398.3,-7.51,-8.89,-8.75,0,*54
1512752914.19,26416,6.56,72402.5,-7.53,-8.81,-8.81,0,*56
1512752915.43,26417,6.56,72400.3,-7.51,-8.75,-8.85,0,*5A
1512752916.65,26418,6.56,72402.8,-7.51,-8.75,-8.75,0,*5A
1512752917.88,26419,6.56,72402.5,-7.51,-8.75,-8.75,0,*5B